RH
11 10 8 7 6 5 4 4 4 5 6 6 7 7 7 8 8 8 8 8 8 7 7 7 7 6 6 6 5 5 4 4 4 4 3 4 6 12
11 10 9 8 7 6 6 6 5 5 6 7 7 8 8 8 8 9 9 9 9 9 8 8 8 8 8 7 7 6 6 5 4 4 4 3 3 3
10 9 8 8 8 7 7 7 7 7 6 8 8 8 8 9 9 10 10 10 10 10 10 9 10 10 10 10 9 8 8 7 7 6 5 4 3 2
10 10 9 9 9 9 9 9 9 8 8 8 10 10 10 11 11 11 11 11 11 11 11 11 11 12 12 12 12 11 10 9 9 8 7 6 5 4
12 13 13 12 13 13 13 13 13 13 12 11 12 13 13 14 13 13 13 13 13 13 13 13 13 13 14 14 14 14 14 12 11 10 9 8 7 6
23 22 22 21 22 21 21 21 20 20 18 17 16 17 17 17 16 16 16 16 15 15 15 16 16 16 16 16 16 17 18 18 16 13 12 10 9 8
44 41 39 36 34 31 28 28 26 25 24 22 22 21 22 22 22 22 21 21 20 21 20 20 22 24 25 24 22 21 19 19 18 16 14 13 11 10
54 50 47 45 43 41 40 38 36 34 34 35 35 34 35 34 34 34 34 33 32 32 32 31 30 29 28 25 24 23 22 21 19 17 15 14 12 11
54 52 51 49 48 47 46 46 44 44 43 42 40 40 39 38 38 36 35 34 33 31 30 28 28 27 28 27 28 27 25 22 20 17 15 13 11 10
66 63 59 57 55 53 52 51 51 53 52 50 48 46 44 41 38 36 34 33 33 33 32 30 29 28 27 26 24 22 20 19 17 15 13 11 10 9
73 73 70 68 64 61 58 56 54 52 50 48 46 43 41 38 36 35 33 32 31 29 25 25 24 24 23 22 17 15 12 9 8 8 8 8 8 8
82 80 77 73 70 67 62 61 60 59 56 53 51 46 43 39 35 34 33 32 31 31 22 22 21 17 20 17 14 12 10 10 9 8 8 8 7 6
86 84 80 76 73 69 64 62 59 57 55 51 46 40 37 31 25 23 23 24 22 19 8 12 14 7 7 13 11 6 5 6 6 7 9 11 11 11
89 86 82 78 74 70 67 62 60 56 51 46 38 30 23 18 14 13 11 9 8 6 3 2 4 2 2 3 3 4 4 7 11 12 18 20 21 20
83 86 82 78 75 72 68 66 62 53 45 36 26 20 15 11 9 7 5 4 2 2 2 2 2 2 2 2 2 4 8 18 26 28 27 29 29 30
66 78 84 80 77 74 69 66 59 49 36 25 18 13 10 7 5 4 3 3 2 2 2 2 2 4 11 32 36 35 46 36 34 33 30 28 29 29
68 70 80 84 81 76 71 64 54 40 26 16 10 7 6 4 4 3 3 3 3 2 2 2 3 12 18 38 41 49 45 43 40 36 36 33 30 29
80 77 79 86 84 77 70 63 49 33 21 13 8 5 4 4 3 3 3 2 2 2 2 2 2 3 29 50 56 52 49 44 41 37 37 36 30 34
87 83 85 90 86 77 68 48 30 20 13 10 5 4 3 3 3 3 3 2 2 2 2 2 2 3 18 35 50 64 55 50 45 39 44 38 19 16
98 94 94 94 87 69 47 22 12 9 7 5 4 4 4 3 3 3 3 3 3 3 3 2 2 3 5 38 47 58 69 60 56 49 36 26 25 26
100 98 98 96 76 41 24 13 10 8 6 6 5 4 4 4 4 4 3 3 3 4 4 3 3 2 3 32 57 62 68 75 54 27 27 31 38 46
100 100 99 94 63 29 15 11 9 8 7 6 6 6 5 5 4 4 4 4 4 4 4 4 4 3 2 33 62 67 67 64 67 47 34 36 43 52
100 100 100 99 86 35 16 12 11 10 9 8 7 7 6 5 5 4 4 4 4 4 4 4 4 3 3 6 40 67 70 71 70 68 71 70 55 66
Wind_Speed
37 37 37 37 37 37 37 37 37 36 35 36 36 35 35 35 35 35 35 36 35 35 35 35 35 35 35 34 34 33 35 36 37 37 38 38 39 39
36 36 37 38 38 38 39 38 39 39 38 37 38 38 37 37 38 38 39 39 38 39 39 39 39 39 38 38 37 37 37 37 38 39 40 41 41 42
35 35 36 36 36 37 38 39 40 41 41 38 39 40 41 40 40 41 41 41 41 42 42 43 42 42 42 41 41 41 41 40 40 41 42 42 43 44
35 35 36 36 37 38 38 39 40 42 43 42 40 41 42 42 43 43 43 44 44 44 45 46 46 46 46 45 45 44 43 43 43 43 44 45 46 46
34 35 35 36 37 37 38 39 40 41 43 45 42 42 43 43 44 44 44 45 46 46 46 47 48 49 49 49 48 48 47 46 46 46 47 47 47 47
33 33 34 35 35 36 37 38 39 40 42 44 45 43 42 42 44 45 45 45 47 48 48 48 48 48 48 49 50 51 51 52 52 52 51 51 51 51
31 31 32 33 34 36 37 37 39 40 41 42 44 44 43 43 43 44 46 46 46 47 48 49 50 50 51 52 53 54 55 56 58 58 58 57 57 56
33 34 34 34 35 36 37 38 39 41 41 42 43 44 44 45 46 46 47 49 51 50 52 52 54 55 56 56 57 59 60 61 61 61 61 61 61 61
37 38 39 40 40 41 42 42 42 42 42 43 44 45 46 47 48 49 49 51 52 54 55 56 56 57 57 59 60 60 60 59 60 61 62 64 65 64
33 34 35 37 38 40 41 43 43 42 43 45 46 47 47 47 48 49 50 50 51 51 52 55 53 52 52 52 54 55 57 59 59 60 62 63 64 66
32 32 32 32 34 35 38 37 37 37 39 41 42 42 43 44 44 46 46 48 48 47 47 49 51 51 50 50 50 51 52 53 54 56 58 60 63 64
32 31 31 31 32 33 35 35 34 34 37 37 38 40 40 41 42 43 44 46 47 48 46 48 48 49 52 50 50 48 47 47 49 51 53 55 58 62
29 30 31 32 31 32 33 33 34 34 33 35 36 37 39 40 40 42 43 46 46 47 45 48 48 46 48 53 51 48 47 49 48 49 50 52 54 57
27 28 30 31 31 32 32 34 33 33 33 33 34 35 36 37 38 39 41 43 45 44 42 44 48 47 48 49 50 50 49 47 48 49 49 50 52 55
26 28 28 28 29 30 31 32 32 32 32 33 33 34 35 35 36 37 37 39 39 38 41 41 43 44 46 48 51 52 51 50 49 52 53 56 57 59
27 27 27 28 28 29 29 30 31 32 32 32 32 32 33 33 34 35 35 36 35 31 35 38 40 41 43 45 50 53 54 57 56 56 63 66 66 62
28 28 28 28 28 28 29 29 30 31 32 32 32 31 31 31 31 32 33 32 32 31 26 31 35 37 40 46 49 48 54 58 60 61 61 60 58 54
30 29 29 28 27 28 28 28 28 29 30 30 30 30 29 29 27 29 30 31 29 28 28 29 32 34 36 36 40 46 52 58 56 51 50 56 61 63
31 31 29 28 27 27 27 27 27 28 29 29 28 28 27 27 27 27 27 28 26 26 26 30 32 36 41 43 36 33 46 48 50 52 51 53 56 54
30 30 29 27 27 27 26 26 26 27 28 28 27 27 26 25 26 25 26 25 24 24 23 28 32 34 39 44 46 39 40 43 43 47 42 41 46 42
30 30 29 28 27 26 26 25 25 24 25 25 25 25 25 24 25 24 23 24 24 24 24 26 29 33 35 39 41 40 38 37 40 42 39 42 42 40
28 29 28 27 25 24 24 24 23 22 22 23 23 23 23 23 24 23 23 22 23 24 23 25 28 30 31 36 37 38 39 33 32 34 36 39 41 43
26 27 26 25 23 23 22 21 20 20 20 21 21 21 22 21 23 23 22 22 22 23 25 24 25 28 30 32 36 35 34 35 30 28 29 33 35 38
Wind_Direction
250 251 252 254 255 255 256 256 257 256 255 256 258 259 261 262 262 264 265 266 266 265 265 265 264 264 264 265 265 264 264 267 268 268 269 268 267 267
253 253 253 253 254 255 257 257 258 258 256 256 258 259 259 262 264 265 266 266 267 267 266 266 266 266 265 265 266 265 264 263 264 266 267 269 270 269
255 255 255 255 256 257 258 259 259 260 260 258 260 262 263 263 263 264 264 265 265 266 267 267 267 267 267 266 266 266 267 267 265 265 266 267 268 268
255 255 256 256 256 256 257 259 261 263 264 263 262 263 263 264 263 263 265 265 265 265 267 268 268 267 267 267 267 267 267 268 269 268 267 266 266 266
254 254 255 256 257 258 259 259 260 262 264 265 263 262 262 263 264 265 264 264 266 266 265 265 266 267 268 269 269 269 270 271 269 269 268 267 266 266
254 254 255 256 257 258 259 260 261 262 263 265 267 266 265 265 266 265 264 266 265 266 266 265 265 267 268 269 269 269 271 272 272 271 269 268 266 265
256 256 257 258 259 259 260 261 261 263 264 266 268 269 270 269 268 268 268 266 265 266 265 266 266 267 268 270 271 272 272 271 271 269 268 268 267 265
259 259 259 259 260 261 262 262 262 264 266 266 267 268 270 271 270 270 270 270 269 268 269 269 270 269 270 270 270 270 270 269 269 269 269 267 266 265
260 260 261 261 262 263 263 264 264 266 267 268 268 269 270 271 273 273 273 273 273 273 273 270 270 269 269 268 268 269 268 267 266 265 266 266 266 264
260 261 261 261 262 263 264 264 266 267 267 268 270 270 271 272 272 273 273 273 273 274 275 274 273 272 270 269 268 267 267 267 266 266 265 264 263 263
262 262 261 261 261 261 262 264 265 264 265 265 267 269 269 270 272 272 274 275 274 274 277 278 277 276 275 271 270 270 271 269 268 267 265 263 262 261
264 264 263 262 263 264 265 265 266 266 265 267 268 268 270 272 273 275 276 277 279 279 281 280 279 281 278 275 275 273 272 271 269 269 267 264 261 260
263 264 264 264 264 264 267 269 268 267 269 268 269 271 272 273 275 277 279 280 280 281 286 284 283 283 282 283 281 281 281 279 276 273 271 269 267 264
261 262 264 266 267 267 267 268 271 270 270 270 270 271 272 273 274 275 276 279 281 284 285 285 286 287 285 284 284 286 287 287 286 283 281 276 271 268
260 260 263 265 267 267 268 269 270 270 270 270 270 270 270 271 272 273 276 278 281 285 287 289 289 289 290 292 292 292 294 291 290 289 284 281 280 276
263 263 265 266 267 267 269 269 269 269 270 270 270 270 270 271 273 273 274 276 279 282 288 289 289 290 293 295 296 299 297 295 295 291 290 287 284 279
268 267 266 266 267 267 267 268 269 269 269 269 269 269 271 271 273 275 277 278 281 281 281 282 284 288 295 299 300 300 299 299 296 293 289 285 282 282
265 267 266 265 265 266 266 267 268 269 270 271 272 273 274 275 276 278 280 282 285 287 291 288 282 282 294 300 298 298 299 298 293 288 288 290 288 287
261 263 263 263 263 264 266 269 271 272 273 275 277 279 280 281 281 282 284 287 291 294 297 301 297 296 305 307 303 309 302 296 292 289 291 293 292 293
257 259 261 261 260 261 264 266 268 271 274 276 279 280 281 282 284 285 287 290 292 297 300 307 308 306 310 315 315 321 318 302 297 291 291 293 299 294
252 254 255 256 257 260 262 263 266 269 273 277 280 281 283 284 286 289 292 296 299 303 307 310 309 310 312 320 318 319 321 310 302 301 306 302 300 294
249 250 249 250 253 256 259 262 264 268 273 278 281 285 288 291 290 291 293 294 298 302 308 311 313 316 315 324 324 321 325 309 307 306 307 302 298 294
244 244 244 245 249 254 256 259 264 269 274 278 282 286 289 292 292 293 295 297 300 305 309 313 314 321 319 321 333 330 327 326 314 299 298 298 298 294